Find Starlink 32007

NORAD ID: 60094 Int'l Des: 2024-117 Owner: SPXS Country: US Constellation: starlink operational
LEOCIRCULAR

Live Position

Loading 3D Globe...

About Starlink 32007

Description loading...

Upcoming Passes

Passes for default location (London). Set your location on the main map for personalized predictions.

Altitude History

Loading altitude history...

Two-Line Element Set

1 60094U 24117D 26126.29037039 -.00000343 00000-0 54167-6 0 9994
2 60094 53.1598 129.6971 0001401 80.1177 279.9982 15.30178100105702
Epoch: May 6, 2026 • Age: 21 hours

Current Status

Altitude 480.9 km
Velocity 7.63 km/s
Sub-Earth Point 53.17°N, 59.86°W
Launch Date Jun 23, 2024
Age 1.8 years
Type internet

Technical Details

Classification Payload
Mass 730.00 kg
Dry Mass 700.00 kg
Total Mass 730.00 kg
Length 0.30 m
Diameter 4.10 m
Span 29.00 m
Shape Box + pan
Manufacturer SPXS
Bus Type Starlink V2M
Phase Status In Orbit
Owner/State SPXS/US

Most Searched